sat.trackr.live / text

‹ back to catalog

UNKNOWN

NORAD 82272

UNKNOWN UNKNOWN UNKNOWN

§ Identity

Operator
Country
Launch date
Launch site
Launch vehicle
Mass (kg)
RCS (m²)

External: N2YO · Heavens-Above

§ Orbital elements

Epoch: 2026-05-18T16:04:36.475968Z

Period
116.72 min
Inclination
67.5239°
Eccentricity
0.0755617
Mean motion
12.33684441 rev/d
Perigee alt
935.7 km
Apogee alt
2,131.3 km
Semi-major
7,911.6 km
B*
-6.2615e-4
RAAN
276.5007°
Arg perigee
5.4678°
Mean anomaly
355.4015°
Rev number
29,129

§ Raw data

UNKNOWN1 82272U          26138.66986662 -.00000250  00000+0 -62615-3 0  99912 82272  67.5239 276.5007 0755617   5.4678 355.4015 12.33684441291295

JSON: /api/v1/satellites/82272 · /tle

For live sub-satellite position, see the globe view (requires WebGL).

§ Visibility from observer

Set your observer location to see the next 7 days of passes ≥ 10°. The values pass through the URL so the page stays shareable.

No JS? Fill the form by hand. The geolocation button needs JavaScript.